LIPXLIPZ

Guest
Details From LIPX - Villafranca
To LIPZ - Venezia Tessera
Flight Number -
Tags Decoded
Created
Modified
Stats Distance 73 nm / 135 km
Max Altitude 0 ft / 0 m
Waypoints 4
Social Downloads 1
Likes 0
Share VATSIM

Download

Looking for another format? Having issues loading an existing format? Contact us
Advertisement - Login to hide

Notes

Decoded

Route

LIPX LIPU LIPH LIPZ

ID Type Via Altitude Latitude Longitude Leg Dist Tot Dist Heading (true) Name
O LIPX APT - 0 ft / 0 m 45.38732˚ 10.87633˚ - 0 nm - -
LIPU APT - 0 ft / 0 m 45.39247˚ 11.84366˚ 40 nm 40 nm 89° / 90° -
LIPH APT - 0 ft / 0 m 45.64464˚ 12.17963˚ 20 nm 61 nm 43° / 43° -
O LIPZ APT - 0 ft / 0 m 45.49516˚ 12.33556˚ 11 nm 72 nm 144° / 144° -

Altitude Profile

Advertisement - Login to hide

LIPX

Details ICAO LIPX (VRN)
Name VILLAFRANCA
Region Italy
Timezone Europe/Rome (UTC+1.0)
Stats Elevation 239 ft / 73 m (AMSL)
Location 45.396942° 10.890418°
Runways 1
Magnetic Variation 2.861° E

METAR

LIPX 160320Z 07006KT 9999 FEW060 04/02 Q1002

Decode

TAF

Not found

Departure Runways

ID Width Length Bearing (true) Bearing (mag) Surface Threshold Offset Overrun Length
04 148 ft / 45 m 10,072 ft / 3,070 m 45.79° 42.93° Asphalt 189 ft / 58 m 815 ft / 248 m
22 148 ft / 45 m 10,072 ft / 3,070 m 225.81° 222.95° Asphalt 1,345 ft / 410 m 189 ft / 58 m

LIPZ

Details ICAO LIPZ (VCE)
Name Venezia Tessera
Region Italy
Timezone Europe/Rome (UTC+1.0)
Stats Elevation 7 ft / 2 m (AMSL)
Location 45.504791° 12.349691°
Runways 2
Magnetic Variation 3.180° E

METAR

LIPZ 160320Z 04010KT 9999 SCT020 SCT030 04/03 Q1002 NOSIG

Decode

TAF

TAF AMD LIPZ 160018Z 1600/1706 01010KT 7000 SCT060 TEMPO 1600/1607 4000 SHRA BECMG 1701/1703 VRB05KT

Decode

Destination Runways

ID Width Length Bearing (true) Bearing (mag) Surface Threshold Offset Overrun Length
04L 148 ft / 45 m 9,112 ft / 2,777 m 42.01° 38.83° Asphalt 312 ft / 95 m 0 ft / 0 m
04R 148 ft / 45 m 10,834 ft / 3,302 m 41.99° 38.81° Asphalt 0 ft / 0 m 0 ft / 0 m
22L 148 ft / 45 m 10,834 ft / 3,302 m 222.01° 218.83° Asphalt 0 ft / 0 m 0 ft / 0 m
22R 148 ft / 45 m 9,112 ft / 2,777 m 222.02° 218.84° Asphalt 0 ft / 0 m 0 ft / 0 m

Approach Navaids

Runway Type Ident Frequency Range Bearing (true) Bearing (mag) Slope Elevation
04R Localiser VTS 109.95 MHz 18 nm / 33 km 42.02° 38.84° - 13 ft / 4 m (AMSL)
04R Glidescope VTS 109.95 MHz 10 nm / 19 km 42.00° 38.82° 3.00° 52 ft / 16 m (AMSL)
04R DME VTS 109.95 MHz 18 nm / 33 km - - - 26 ft / 8 m (AMSL)

Popular Alternatives